Карточка аэропорта USTR

Внимание!
Информация на этой странице в стадии наполнения.
Если вы не увидели какой-то информации, или заметили неточность - пожалуйста сообщите нам!
Спасибо!
Команда RU-STAFF
Название аэропортаРощино
Название аэропорта (англ.)Roshschino
Превышение378 ft. (115.2 m.)
Координаты57°10.098', 65°19.002'
Высота перехода700m
Эшелон переходаFL040
Коды ответчика5101-5137
Зона ОрВДТюмень РПИ (USTV)
Данные METARUSTR 041800Z 04005MPS 9999 -SHSN BKN010 OVC016CB M09/M10 Q1034 R30/490535 R21/490535 TEMPO 1000 -SHSN BR VV003
Проноз погоды (TAF)USTR 041821Z 0418/0518 04006G13MPS 3100 -SHSN DRSN BKN011CB TEMPO 0418/0421 05005MPS 1000 SHSN BR VV003 FM042100 05005MPS 3100 -SHSN BR BKN005 BKN011CB TEMPO 0421/0503 06004MPS 0300 FZFG VV002 FM050300 06003G08MPS 6000 FEW005 SCT020 BECMG 0511/0513 VRB01MPS
NOTAMshow/hide NOTAM
AWOS   TABLE

Информация о ВПП

ВПП Длина ВПП (м.) Покрытие Курс ВПП Частота ILS
033003Асфальтобетон34108.3
213003Асфальтобетон214110.7
122704Асфальтобетон121 
302704Асфальтобетон301 

Диспетчерские позиции

Позывной Наименование органа УВД Частота
USTR_TWRТюмень-Старт118.200
USTR_R_APPТюмень-Круг126.100
USTR_GNDТюмень-Руление119.000



Спутниковое изображение